EW3791 Weather Reports


time (UTC)temp
F
wind
direction
speed
knots
gust
knots
rain 1hr
in
rain 24hr
in
rain mn
in
humidity
%
barometer
mb
20260510051541 76 100 5.2 10.4 0.00 0.26 0.00 91 1010.6
20260510050000 76 179 5.2 12.2 0.00 0.26 0.26 91 1010.5
20260510044543 77 39 4.3 11.3 0.00 0.26 0.26 91 1010.7
20260510043010 76 101 4.3 12.2 0.00 0.26 0.26 90 1010.9
20260510041554 76 131 3.5 7.8 0.00 0.26 0.26 90 1011.2
20260510040020 76 122 3.5 8.7 0.00 0.26 0.26 90 1010.9
20260510034603 76 150 3.5 7.0 0.00 0.26 0.26 90 1010.6
20260510033036 76 96 3.5 10.4 0.00 0.26 0.26 90 1010.9
20260510031512 77 117 5.2 11.3 0.00 0.26 0.26 90 1010.9
20260510030054 77 86 6.1 13.9 0.00 0.26 0.26 90 1010.9
20260510024518 78 110 6.1 12.2 0.00 0.26 0.26 90 1010.6
20260510023101 79 121 6.1 13.0 0.00 0.26 0.26 86 1010.2
20260510021526 79 129 2.6 7.0 0.00 0.26 0.26 78 1009.8
20260510020108 77 148 4.3 8.7 0.00 0.26 0.26 84 1009.5
20260510014538 75 112 0.0 3.5 0.00 0.26 0.26 92 1008.8
20260510013013 75 314 0.0 2.6 0.00 0.26 0.26 92 1008.6
20260510011608 76 290 0.9 5.2 0.03 0.26 0.26 92 1007.9
20260510010029 76 302 0.0 0.0 0.12 0.26 0.26 92 1007.7
20260510004606 76 307 0.0 4.3 0.17 0.26 0.26 90 1007.3
20260510003036 75 97 3.5 7.0 0.22 0.25 0.25 89 1007.7
20260510001506 76 15 5.2 9.6 0.22 0.22 0.22 87 1007.9
20260510000050 77 53 1.7 11.3 0.14 0.14 0.14 83 1007.5
20260509234519 79 129 0.0 5.2 0.09 0.09 0.09 85 1007.6
20260509233104 85 242 3.5 8.7 0.03 0.03 0.03 73 1007.2
20260509231533 88 47 1.7 7.0 0.00 0.00 0.00 64 1007.0
20260509230006 88 90 1.7 6.1 0.00 0.00 0.00 62 1006.9
20260509224557 89 86 3.5 7.0 0.00 0.01 0.00 63 1006.8
20260509223030 90 108 0.9 4.3 0.00 0.01 0.00 61 1006.7
20260509221612 90 212 0.0 3.5 0.00 0.01 0.00 59 1006.7
20260509220048 90 188 1.7 4.3 0.00 0.01 0.00 59 1006.6
20260509214515 90 352 0.0 2.6 0.00 0.01 0.00 60 1006.6
20260509213116 89 328 2.6 8.7 0.00 0.01 0.00 62 1006.6
20260509211548 90 91 3.5 4.3 0.00 0.01 0.00 60 1006.6
20260509210106 90 316 1.7 6.1 0.00 0.01 0.00 61 1006.9
20260509204544 91 295 2.6 6.1 0.00 0.01 0.00 60 1007.0
20260509203019 89 352 1.7 6.1 0.00 0.01 0.00 63 1007.3
20260509201700 90 54 0.9 7.0 0.00 0.01 0.00 63 1007.3
20260509200023 88 309 4.3 8.7 0.00 0.01 0.00 63 1007.5
20260509194600 89 104 2.6 5.2 0.00 0.01 0.00 62 1007.7
20260509193029 88 348 1.7 6.1 0.00 0.01 0.00 64 1007.7
20260509191504 88 273 1.7 6.1 0.00 0.01 0.00 65 1008.0
20260509190048 88 352 1.7 4.3 0.00 0.01 0.00 67 1007.9
20260509184513 87 139 1.7 4.3 0.00 0.02 0.00 69 1008.2
20260509183057 86 219 0.9 4.3 0.00 0.02 0.00 71 1008.4
20260509181528 85 280 1.7 7.8 0.00 0.02 0.00 73 1008.7
20260509180107 84 182 0.9 6.1 0.00 0.02 0.00 77 1009.1
20260509174534 83 200 3.5 9.6 0.00 0.03 0.00 78 1009.2
20260509173003 82 172 3.5 7.8 0.00 0.03 0.00 79 1009.3
20260509171548 82 193 2.6 4.3 0.00 0.03 0.00 81 1009.7
20260509170016 81 237 1.7 4.3 0.00 0.03 0.00 82 1009.8
20260509164556 82 226 0.0 6.1 0.00 0.05 0.00 83 1009.8
20260509163024 81 271 0.9 2.6 0.00 0.05 0.00 83 1009.7
20260509161607 81 190 0.0 1.7 0.00 0.05 0.00 83 1009.8
20260509160039 81 148 0.0 0.0 0.00 0.05 0.00 85 1009.8
20260509154506 79 148 0.0 1.7 0.00 0.06 0.00 87 1009.7
20260509153050 78 183 0.0 3.5 0.00 0.06 0.00 89 1009.6
20260509151519 78 331 0.0 0.9 0.00 0.06 0.00 92 1009.8
20260509150057 77 331 0.0 2.6 0.00 0.06 0.00 92 1009.7
20260509144535 77 294 2.6 4.3 0.00 0.06 0.00 94 1009.5
20260509143004 76 169 0.0 1.7 0.00 0.06 0.00 95 1009.3
20260509141551 76 141 2.6 5.2 0.00 0.06 0.00 95 1009.0
20260509140022 76 170 1.7 4.3 0.00 0.06 0.00 96 1009.0
20260509134601 76 200 0.9 4.3 0.00 0.06 0.00 96 1009.2
20260509133034 75 240 1.7 3.5 0.00 0.06 0.00 97 1009.8
20260509131504 75 230 0.0 0.0 0.00 0.06 0.00 97 1009.9
20260509130047 75 186 0.9 2.6 0.00 0.06 0.00 97 1009.9
20260509124519 75 176 0.0 1.7 0.00 0.06 0.00 97 1009.5
20260509123108 74 82 0.0 0.9 0.00 0.06 0.00 97 1009.6
20260509121541 74 94 0.0 2.6 0.00 0.06 0.00 96 1009.4
20260509120015 74 94 0.0 3.5 0.00 0.06 0.00 96 1009.1
20260509114556 74 330 0.0 0.9 0.00 0.06 0.00 96 1009.2
20260509113021 74 330 0.0 2.6 0.00 0.06 0.00 96 1009.9
20260509111602 75 311 2.6 3.5 0.00 0.06 0.00 96 1009.4
20260509110033 75 161 0.0 1.7 0.00 0.06 0.00 96 1009.2
20260509104503 75 161 0.0 0.0 0.00 0.06 0.00 96 1008.8
20260509103047 75 161 0.9 3.5 0.00 0.06 0.00 96 1008.9
20260509101522 75 161 0.0 2.6 0.00 0.06 0.00 96 1008.8
20260509100111 74 161 0.0 0.0 0.00 0.06 0.00 96 1008.8
20260509094614 75 161 0.0 0.0 0.00 0.06 0.00 96 1008.7
20260509093035 75 161 0.0 1.7 0.00 0.06 0.00 96 1008.7
20260509091528 75 161 0.0 2.6 0.00 0.06 0.00 96 1008.8
20260509084531 75 100 0.0 0.0 0.00 0.06 0.00 95 1008.6
20260509083109 75 99 0.0 1.7 0.00 0.06 0.00 95 1008.4
20260509081536 75 98 0.0 2.6 0.00 0.06 0.00 95 1008.8
20260509080008 75 142 1.7 5.2 0.00 0.06 0.00 95 1008.6
20260509074545 75 158 1.7 4.3 0.00 0.06 0.00 95 1008.6
20260509073035 75 159 0.9 6.1 0.00 0.06 0.00 95 1009.0
20260509071555 75 104 1.7 6.1 0.00 0.06 0.00 95 1009.2
20260509070024 75 138 1.7 5.2 0.00 0.06 0.00 95 1009.2
20260509064608 75 160 0.9 3.5 0.00 0.06 0.00 95 1009.1
20260509063035 75 148 0.0 7.0 0.00 0.06 0.00 95 1009.2
20260509061510 75 141 1.7 3.5 0.00 0.06 0.00 95 1009.2
20260509060052 75 144 0.9 3.5 0.00 0.06 0.00 95 1009.3
20260509054529 75 149 0.0 0.0 0.00 0.06 0.00 95 1009.4
20260509053105 75 111 0.0 0.0 0.00 0.06 0.00 95 1009.5